DW7000 Weather Reports


time (UTC)temp
C
wind
direction
speed
KPH
gust
KPH
rain 1hr
cm
rain 24hr
cm
rain mn
cm
humidity
%
barometer
mb
20260509011526 13 155 0.0 0.0 0.00 0.00 0.00 75 1012.6
20260509010032 13 138 0.0 0.0 0.00 0.00 0.00 74 1012.6
20260509004533 13 158 0.0 0.0 0.00 0.00 0.00 72 1012.5
20260509003024 14 150 0.0 0.0 0.00 0.00 0.00 71 1012.3
20260509001526 14 160 0.0 0.0 0.00 0.00 0.00 71 1012.3
20260509000023 14 153 0.0 0.0 0.00 0.00 0.00 71 1012.1
20260508234526 14 155 0.0 0.0 0.00 0.00 0.00 71 1012.0
20260508233022 15 148 0.0 0.0 0.00 0.00 0.00 71 1012.1
20260508231521 15 169 0.0 0.0 0.00 0.00 0.00 71 1012.1
20260508230020 15 133 0.0 0.0 0.00 0.00 0.00 69 1012.1
20260508224526 15 222 0.0 1.6 0.00 0.00 0.00 69 1011.9
20260508223031 16 153 0.0 0.0 0.00 0.00 0.00 70 1012.1
20260508221519 16 156 0.0 0.0 0.00 0.00 0.00 68 1012.2
20260508220018 16 159 0.0 0.0 0.00 0.00 0.00 67 1012.0
20260508214528 16 157 0.0 0.0 0.00 0.00 0.00 66 1012.0
20260508213018 17 139 0.0 0.0 0.00 0.00 0.00 65 1012.1
20260508211516 16 158 0.0 0.0 0.00 0.00 0.00 63 1012.0
20260508210017 17 201 0.0 0.0 0.00 0.00 0.00 64 1012.0
20260508204518 17 172 0.0 0.0 0.00 0.00 0.00 60 1012.0
20260508203018 18 166 0.0 1.6 0.00 0.00 0.00 58 1012.0
20260508201516 18 146 0.0 4.8 0.00 0.00 0.00 59 1012.3
20260508200020 19 208 0.0 0.0 0.00 0.00 0.00 55 1012.4
20260508194516 19 150 0.0 4.8 0.00 0.00 0.00 54 1012.6
20260508193012 19 129 0.0 1.6 0.00 0.00 0.00 54 1012.8
20260508191509 18 95 0.0 0.0 0.00 0.00 0.00 58 1013.0
20260508190021 18 148 0.0 0.0 0.00 0.00 0.00 56 1013.3
20260508184519 18 152 0.0 0.0 0.00 0.00 0.00 57 1013.6
20260508183012 17 134 0.0 4.8 0.00 0.00 0.00 57 1013.7
20260508181504 17 167 0.0 0.0 0.00 0.00 0.00 59 1013.9
20260508180004 17 145 0.0 1.6 0.00 0.00 0.00 59 1014.1
20260508174503 17 152 0.0 0.0 0.00 0.00 0.00 57 1014.1
20260508173003 17 231 0.0 0.0 0.00 0.00 0.00 59 1014.4
20260508171503 16 195 0.0 0.0 0.00 0.00 0.00 58 1014.4
20260508170004 17 164 0.0 0.0 0.00 0.00 0.00 60 1014.9
20260508164503 18 155 0.0 0.0 0.00 0.00 0.00 58 1015.0
20260508163059 17 165 0.0 1.6 0.00 0.00 0.00 58 1015.2
20260508161606 16 146 0.0 0.0 0.00 0.00 0.00 58 1015.3
20260508160054 16 246 0.0 0.0 0.00 0.00 0.00 63 1015.4
20260508154552 15 129 0.0 0.0 0.00 0.00 0.00 67 1015.6
20260508153056 15 152 0.0 0.0 0.00 0.00 0.00 66 1015.8
20260508151550 15 158 0.0 0.0 0.00 0.00 0.00 62 1015.7
20260508150046 15 263 0.0 0.0 0.00 0.00 0.00 67 1015.7
20260508144550 14 177 0.0 0.0 0.00 0.00 0.00 67 1015.7
20260508143044 14 146 0.0 0.0 0.00 0.00 0.00 67 1015.6
20260508141540 13 124 0.0 0.0 0.00 0.00 0.00 68 1015.7
20260508140034 13 162 0.0 0.0 0.00 0.15 0.00 70 1015.8
20260508134534 12 155 0.0 0.0 0.00 0.15 0.00 71 1016.0
20260508133030 12 236 0.0 0.0 0.00 0.15 0.00 72 1016.0
20260508131524 11 338 0.0 0.0 0.00 0.15 0.00 73 1015.8
20260508130032 10 333 0.0 0.0 0.00 0.23 0.00 74 1015.6
20260508124521 10 18 0.0 0.0 0.00 0.23 0.00 72 1015.6
20260508123021 10 358 0.0 0.0 0.00 0.23 0.00 71 1015.3
20260508121516 10 316 0.0 0.0 0.00 0.23 0.00 71 1015.0
20260508120014 10 66 0.0 0.0 0.00 0.38 0.00 75 1014.8
20260508114511 9 321 0.0 1.6 0.00 0.38 0.00 78 1014.5
20260508113010 10 337 0.0 8.0 0.00 0.38 0.00 77 1014.2
20260508111508 9 318 0.0 4.8 0.00 0.38 0.00 76 1013.7
20260508110006 9 340 0.0 6.4 0.00 0.61 0.00 78 1013.4
20260508104505 9 277 0.0 8.0 0.00 0.61 0.00 78 1013.4
20260508103005 9 289 0.0 9.7 0.00 0.61 0.00 77 1013.1
20260508101559 9 314 0.0 6.4 0.00 0.61 0.00 79 1012.8
20260508100057 9 309 0.0 6.4 0.00 0.61 0.00 80 1012.5
20260508094555 10 22 0.0 8.0 0.00 0.79 0.00 80 1012.1
20260508093104 10 294 0.0 11.3 0.00 0.79 0.00 79 1012.1
20260508091555 10 68 0.0 9.7 0.00 0.79 0.00 79 1012.1
20260508090059 10 52 0.0 9.7 0.00 0.81 0.00 79 1012.1
20260508084549 10 340 0.0 9.7 0.00 0.81 0.00 79 1012.1
20260508083049 10 25 0.0 6.4 0.00 0.81 0.00 78 1012.0
20260508081546 10 295 0.0 12.9 0.00 0.81 0.00 78 1011.9
20260508080045 10 236 0.0 4.8 0.00 0.89 0.00 78 1011.7
20260508074544 10 56 0.0 6.4 0.00 0.89 0.00 78 1011.8
20260508073043 10 305 0.0 12.9 0.00 0.89 0.00 78 1011.9
20260508071542 10 53 0.0 0.0 0.00 0.89 0.00 82 1011.7
20260508070040 10 264 0.0 0.0 0.00 1.02 0.00 80 1011.7
20260508064541 10 232 0.0 0.0 0.00 1.02 0.00 80 1011.4
20260508063055 10 345 0.0 0.0 0.00 1.02 0.00 80 1011.5
20260508061534 10 353 0.0 0.0 0.00 1.02 0.00 79 1011.6
20260508060032 10 240 0.0 0.0 0.00 1.32 0.00 78 1011.5
20260508054530 11 275 0.0 4.8 0.00 1.32 0.00 76 1011.4
20260508053029 11 347 0.0 6.4 0.00 1.32 0.00 76 1011.3
20260508051527 11 295 0.0 4.8 0.00 1.32 0.00 76 1011.3
20260508050034 11 315 0.0 11.3 0.00 1.35 0.00 75 1011.0
20260508044524 11 315 1.6 16.1 0.00 1.35 0.00 75 1010.9
20260508043021 11 56 0.0 16.1 0.00 1.35 0.00 75 1010.9
20260508041521 11 288 0.0 12.9 0.00 1.35 0.00 74 1010.8
20260508040019 11 277 0.0 16.1 0.00 1.35 1.35 73 1010.6
20260508034519 11 32 0.0 12.9 0.00 1.35 1.35 74 1010.7
20260508033015 11 296 0.0 12.9 0.00 1.35 1.35 74 1010.7
20260508031515 11 267 0.0 8.0 0.00 1.35 1.35 74 1010.8
20260508030014 11 295 0.0 8.0 0.00 1.50 1.35 76 1010.7
20260508024513 11 314 0.0 14.5 0.00 1.50 1.35 78 1010.8
20260508023012 11 263 0.0 0.0 0.00 1.50 1.35 78 1010.6
20260508021512 11 256 0.0 11.3 0.00 1.50 1.35 78 1010.3
20260508020012 11 289 0.0 12.9 0.00 1.70 1.35 79 1010.0
20260508014610 11 356 0.0 8.0 0.00 1.70 1.35 80 1009.8
20260508013008 11 304 1.6 25.7 0.00 1.70 1.35 80 1009.3